Location: Moscow
(55.7500°N, 37.5830°E)
Time: 09:37:41
(UTC+03:00)

Transit 4A - Pass Details

Date: 07 December 2021
Orbit: 863 x 981 km, 66.8° (Epoch: 23 January)

Event Time Altitude Azimuth Distance (km) Brightness Sun altitude
Rises 18:21:25 0° 179° (S) 3,463 11.0 -18.6°
Reaches altitude 10° 18:24:11 10° 168° (SSE) 2,543 10.2 -19.0°
Enters shadow 18:28:53 28° 114° (ESE) 1,641 8.7 -19.6°
